This demonstration page uses our WeatherBlox Daily Observations layout. Learn more.

Left ArrowRight Arrow

39.01783, -85.05884

Hourly Observations for February 5, 2020

Temp ( °F °C ) Dew Point ( °F °C ) Humidity (%) Winds ( mph kmh ) Pressure ( in mb ) Visibility ( mi km ) Precip ( " mm )
12:41 am 00:41 Cloudy with Drizzle 35 1.7 32 0 89 89 NNE 20 31 30 1016 7 11.26538 0.001 0.001
12:52 am 00:52 Cloudy 34 1.1 30 -1.1 85 85 NNE 20 31 29.96 1015 10 16.0934 0.001 0.001
1:17 am 01:17 Cloudy 34 1.1 29 -1.7 82 82 NE 18 30 30.01 1016 10 16.0934 0 0
1:52 am 01:52 Cloudy with Drizzle 33 0.6 30 -1.1 89 89 NE 15 24 29.97 1015 7 11.26538 0.001 0.001
2:52 am 02:52 Cloudy 33 0.6 30 -1.1 89 89 NE 18 30 29.98 1015 10 16.0934 0.001 0.001
3:52 am 03:52 Cloudy 34 1.1 28 -2.2 79 79 NNE 17 28 30.01 1016 10 16.0934 0 0
4:52 am 04:52 Cloudy with Drizzle 33 0.6 28 -2.2 82 82 NNE 16 26 30.03 1017 4 6.43736 0.001 0.001
5:01 am 05:01 Cloudy with Light Freezing Drizzle 32 0 28 -2.2 85 85 NE 17 28 30.08 1018 4 6.43736 0.001 0.001
5:28 am 05:28 Cloudy 32 0 27 -2.8 82 82 NE 18 30 30.07 1018 10 16.0934 0.001 0.001
5:52 am 05:52 Cloudy 32 0 27 -2.8 82 82 NE 17 28 30.03 1017 10 16.0934 0.001 0.001
6:52 am 06:52 Cloudy 33 0.6 25 -3.9 72 72 NE 17 28 30.04 1017 10 16.0934 0 0
7:31 am 07:31 Cloudy 33 0.6 25 -3.9 72 72 ENE 18 30 30.08 1019 10 16.0934 0 0
7:52 am 07:52 Cloudy 33 0.6 25 -3.9 72 72 ENE 17 28 30.05 1018 10 16.0934 0 0
8:52 am 08:52 Cloudy 33 0.6 25 -3.9 72 72 ENE 18 30 30.03 1017 10 16.0934 0 0
9:52 am 09:52 Cloudy 34 1.1 25 -3.9 70 70 ENE 14 22 30.04 1017 10 16.0934 0 0
10:52 am 10:52 Cloudy 35 1.7 25 -3.9 67 67 ENE 17 28 30.01 1016 10 16.0934 0 0
11:52 am 11:52 Cloudy 36 2.2 27 -2.8 70 70 E 16 26 29.98 1015 10 16.0934 0 0
12:52 pm 12:52 Cloudy 37 2.8 27 -2.8 67 67 E 12 19 29.95 1014 10 16.0934 0 0
1:52 pm 13:52 Cloudy 37 2.8 27 -2.8 67 67 ENE 13 20 29.89 1012 10 16.0934 0 0
2:52 pm 14:52 Cloudy 37 2.8 28 -2.2 70 70 ENE 16 26 29.85 1011 10 16.0934 0 0
3:52 pm 15:52 Cloudy 37 2.8 28 -2.2 70 70 ENE 14 22 29.8 1009 10 16.0934 0 0
4:52 pm 16:52 Cloudy 36 2.2 30 -1.1 79 79 NE 15 24 29.75 1008 9 14.48406 0 0
5:15 pm 17:15 Cloudy with Light Rain 35 1.7 31 -0.6 85 85 ENE 15 24 29.78 1008 2 3.21868 0.001 0.001
5:22 pm 17:22 Cloudy with Light Rain 35 1.7 31 -0.6 85 85 ENE 15 24 29.78 1008 1.25 2.011675 0 0
5:42 pm 17:42 Cloudy with Light Rain 35 1.7 32 0 89 89 ENE 13 20 29.78 1008 1.5 2.41401 0.03 0.762
5:52 pm 17:52 Cloudy with Light Rain 34 1.1 32 0 92 92 ENE 13 20 29.74 1007 1.5 2.41401 0.03 0.762
6:52 pm 18:52 Cloudy with Heavy Rain 35 1.7 32 0 89 89 ENE 15 24 29.69 1005 1.5 2.41401 0.03 0.762
7:42 pm 19:42 Cloudy with Rain 35 1.7 33 0.6 93 93 NE 9 15 29.74 1007 3 4.82802 0.16 4.064
7:52 pm 19:52 Cloudy with Heavy Rain 35 1.7 33 0.6 93 93 NNE 12 19 29.71 1006 2 3.21868 0.19 4.826
8:02 pm 20:02 Cloudy with Light Rain 35 1.7 33 0.6 93 93 NNW 13 20 29.77 1008 3 4.82802 0.06 1.524
8:52 pm 20:52 Cloudy with Light Rain 34 1.1 32 0 92 92 NE 14 22 29.71 1006 3 4.82802 0.08 2.032
9:52 pm 21:52 Cloudy with Mist and Fog 34 1.1 31 -0.6 89 89 ENE 15 24 29.65 1004 5 8.0467 0.001 0.001
10:52 pm 22:52 Cloudy with Drizzle 34 1.1 32 0 92 92 ENE 13 20 29.64 1004 3 4.82802 0.001 0.001
11:22 pm 23:22 Cloudy with Drizzle 34 1.1 32 0 92 92 NE 10 17 29.66 1004 2 3.21868 0.001 0.001
11:38 pm 23:38 Cloudy with Drizzle 34 1.1 32 0 92 92 NE 12 19 29.64 1004 2 3.21868 0.001 0.001
11:52 pm 23:52 Cloudy with Drizzle 34 1.1 32 0 92 92 ENE 12 19 29.6 1002 2 3.21868 0.001 0.001

Powered by AerisWeather